Dewpoint
20 26 39 42 36 34 43 44 50 54 57 57 57 57 58 58 58 53 53 53 54 54 57 60 60 60 62 64 65 66 67 68 68 67 64 63 63 64 66 66 69 69 70 70
22 21 32 43 37 31 39 41 50 54 56 54 53 55 56 58 57 54 53 52 53 54 56 59 60 60 60 63 64 66 67 68 69 66 65 64 64 65 65 66 68 69 70 70
16 17 39 40 33 31 42 42 46 49 55 55 52 51 57 57 58 55 54 54 53 55 55 58 60 60 61 62 65 66 67 67 68 66 67 68 70 70 69 68 66 67 69 69
18 26 33 39 32 31 32 39 47 49 47 45 51 44 53 56 56 57 56 55 53 54 56 57 59 59 60 61 65 67 67 68 67 69 66 66 66 66 63 65 66 67 69 68
23 25 33 35 35 30 31 33 43 45 42 43 45 43 48 56 54 56 57 54 53 54 55 56 58 60 59 61 63 66 68 69 67 69 68 68 63 63 64 65 68 69 69 68
27 31 31 29 31 28 35 37 41 44 42 34 41 44 45 49 52 50 56 55 53 53 54 55 57 59 59 61 63 65 68 69 69 70 68 67 66 65 66 67 67 65 66 67
26 27 29 28 29 33 37 39 37 36 36 34 38 41 40 48 52 53 50 55 54 52 54 55 56 60 61 61 62 64 67 69 69 68 68 68 66 67 66 66 65 66 65 66
19 20 25 25 24 27 32 37 33 32 32 33 42 38 41 48 52 54 54 54 56 54 53 53 57 58 63 61 62 63 66 67 68 68 68 69 69 66 68 67 65 65 68 66
17 18 23 23 23 22 28 30 33 30 32 32 39 41 47 52 52 53 54 55 55 56 54 54 56 58 60 61 62 63 64 67 67 67 68 68 68 67 69 67 70 67 68 67
22 17 20 21 21 21 22 28 28 29 25 26 36 36 34 50 52 53 53 54 55 57 56 56 56 59 60 62 62 64 64 66 66 66 67 66 66 68 68 67 66 68 69 70
24 21 22 23 19 16 20 20 20 21 24 23 27 33 45 50 52 52 53 54 56 57 58 59 60 61 63 62 65 65 65 66 66 66 66 65 66 66 68 68 66 68 69 71
28 24 22 20 21 19 19 18 19 17 21 26 27 36 53 53 53 55 56 56 56 57 56 61 63 64 65 65 66 66 65 66 67 67 66 67 66 66 65 67 66 68 67 69
29 23 22 22 25 26 22 21 20 18 17 20 22 25 54 56 56 57 59 59 59 58 59 61 64 65 66 67 68 69 69 67 67 67 66 66 67 65 66 66 68 68 68 67
28 24 24 20 23 21 22 22 22 22 20 20 21 29 50 54 56 58 59 60 62 62 63 63 64 65 66 66 67 67 67 68 69 68 68 68 68 65 67 68 69 68 67 68
28 25 25 25 26 24 24 22 21 22 21 19 19 24 35 51 56 57 59 60 61 62 62 64 65 65 66 66 66 66 67 68 68 68 68 68 69 69 69 69 69 69 70 69
27 26 29 24 24 23 24 30 27 22 22 24 26 28 47 53 56 58 59 60 60 61 61 62 64 65 65 65 65 67 67 67 68 67 67 67 68 68 68 68 68 69 69 69
28 27 29 23 26 25 22 28 35 34 37 35 26 42 50 54 55 56 58 59 60 60 60 61 60 63 66 66 64 64 65 66 66 67 67 66 66 66 66 66 66 67 67 68
29 29 27 26 29 22 27 31 34 41 44 44 46 49 52 55 56 57 57 57 58 58 58 58 58 57 61 62 63 63 64 64 64 63 65 65 65 65 64 64 64 65 66 66
31 30 24 23 24 26 29 31 33 35 37 48 48 51 54 55 56 56 57 57 58 58 57 56 56 56 57 57 57 58 57 58 58 59 60 61 62 63 63 62 62 62 63 66
26 30 27 25 23 26 34 33 34 35 34 50 51 52 54 54 52 53 56 57 57 56 54 53 53 54 54 54 55 54 54 54 53 54 56 58 58 58 59 60 60 63 62 60
25 26 26 24 25 27 35 35 35 30 35 41 50 53 54 53 53 54 56 57 56 54 53 52 51 50 51 52 52 50 50 50 50 51 53 54 56 57 58 59 61 60 57 56
28 25 22 24 24 24 40 37 37 42 43 44 51 52 53 54 54 54 55 54 53 52 51 50 50 50 50 50 51 50 50 51 52 52 52 53 52 51 55 56 57 56 55 54
28 31 31 31 32 41 41 41 44 47 47 46 52 52 54 54 53 54 55 53 51 50 49 48 48 48 49 48 49 50 50 51 51 51 51 52 52 52 53 53 53 53 53 51
34 38 35 36 39 39 40 42 44 48 50 52 52 53 53 53 53 53 55 52 51 49 48 48 47 46 47 47 48 48 49 49 49 49 49 49 49 49 47 46 46 46 47 46
35 38 34 33 39 40 41 43 44 46 50 52 52 52 53 53 52 53 54 53 51 50 48 47 47 46 46 46 45 45 46 46 45 45 45 44 44 45 45 42 42 40 40 40
35 33 32 33 42 42 43 43 44 43 47 50 51 51 52 53 52 51 51 50 49 48 47 47 46 46 45 44 44 45 45 44 41 39 37 36 37 37 37 36 33 37 37 34
Wind_Speed
16 16 22 19 15 6 8 5 18 8 9 5 5 16 29 24 18 24 22 23 22 20 18 17 15 16 17 15 15 14 12 12 12 11 10 9 9 8 7 6 5 5 5 5
12 22 20 7 5 10 8 10 12 9 6 11 11 13 21 19 20 21 23 23 22 20 20 17 17 17 17 17 15 15 13 13 13 11 8 7 6 7 7 7 5 5 6 5
17 16 8 11 12 10 5 6 13 11 9 12 8 5 18 16 15 20 22 20 22 21 20 19 19 18 17 17 16 15 14 13 12 10 9 7 5 4 3 4 6 6 5 5
13 5 16 15 12 10 10 3 6 20 13 6 8 5 3 16 20 25 20 26 24 22 20 21 20 19 19 17 16 14 14 14 14 11 11 13 11 8 7 9 7 6 5 5
9 12 18 18 15 8 3 1 5 12 7 14 8 6 2 22 21 24 20 24 23 23 24 21 22 21 18 17 17 16 14 13 13 11 8 12 11 8 8 6 6 6 6 6
5 11 12 12 10 9 2 11 4 4 3 7 14 5 8 18 28 33 29 29 25 25 23 21 21 18 17 17 16 16 16 15 13 11 10 10 6 5 4 7 9 8 8 9
7 12 9 6 15 10 10 16 10 10 9 5 5 11 4 19 25 32 36 32 27 23 23 22 19 17 17 19 18 16 16 16 14 13 11 10 9 7 8 11 10 5 7 6
16 17 15 12 14 13 18 21 9 8 10 9 4 8 3 5 18 27 29 32 30 26 24 24 21 21 20 21 19 17 17 16 14 13 12 9 7 7 8 11 6 9 8 8
13 12 10 13 15 10 19 20 20 17 9 8 11 4 6 9 14 18 28 26 26 27 23 22 22 20 22 21 20 18 16 16 15 15 12 10 9 9 6 2 5 8 8 6
5 9 12 17 16 17 16 18 23 15 11 13 9 9 9 14 16 21 21 31 31 27 24 18 18 18 18 18 16 18 18 17 16 14 13 12 10 9 7 4 6 5 5 6
6 9 12 11 19 19 18 16 19 20 21 17 13 9 5 9 13 18 20 24 29 27 23 18 14 15 14 16 13 11 15 15 16 16 14 12 10 8 7 6 7 2 5 8
4 7 12 17 9 13 18 25 20 21 20 14 20 3 3 6 9 10 12 17 21 26 26 18 17 16 12 12 15 14 13 12 13 13 14 14 13 11 10 8 8 5 7 6
3 8 12 11 10 7 16 15 19 23 23 21 21 11 8 10 9 9 12 14 15 18 19 20 15 17 18 16 15 14 6 6 7 9 13 14 14 14 11 9 8 9 7 7
3 14 13 10 4 7 16 13 17 20 18 18 19 11 10 13 14 15 16 15 12 12 10 13 18 18 16 17 15 13 6 2 6 9 11 12 13 13 11 8 7 9 8 9
5 13 8 11 5 4 5 12 17 21 22 23 13 17 11 16 17 15 14 13 14 12 10 11 11 14 17 17 13 12 12 8 8 8 10 11 9 10 10 7 5 5 5 5
3 9 7 8 4 5 5 5 11 17 14 15 10 8 4 12 14 14 13 14 13 11 9 8 5 13 17 17 14 14 14 10 9 10 11 12 12 10 10 8 6 5 4 2
3 5 8 14 9 9 13 2 1 4 6 8 14 2 11 14 13 13 13 13 12 10 8 8 7 7 10 16 18 15 14 9 9 10 12 13 14 11 7 7 3 5 4 5
3 3 6 10 7 15 9 5 6 2 1 3 4 2 10 13 12 12 11 11 12 11 11 10 9 10 11 14 12 11 10 10 10 12 12 12 11 11 8 6 6 4 5 6
4 6 5 12 15 4 8 4 6 7 6 8 1 5 12 14 15 9 11 11 12 11 11 11 11 11 13 15 12 14 14 13 13 12 12 10 10 10 9 9 5 5 5 9
7 4 11 5 12 10 10 7 7 7 5 10 5 6 14 17 12 8 10 14 16 14 14 15 14 14 16 12 12 15 14 13 13 10 12 11 11 12 10 10 9 7 10 11
6 7 11 7 7 6 7 9 5 8 4 10 6 6 15 13 5 18 14 13 17 18 19 17 16 16 14 12 13 14 12 12 10 10 9 10 9 9 9 8 9 12 13 13
6 5 7 4 10 9 13 2 5 9 8 9 4 4 10 5 17 20 19 19 21 20 18 19 17 14 10 11 11 13 12 7 8 9 9 9 7 10 10 12 11 13 13 13
5 3 4 4 6 4 6 6 8 9 9 6 5 3 13 14 18 20 20 21 21 20 17 16 17 14 10 8 9 10 8 6 7 7 8 8 8 9 9 10 11 11 9 9
4 1 4 3 5 4 3 5 8 10 10 7 1 6 10 15 20 20 20 19 19 18 15 14 13 13 11 8 8 9 8 7 7 7 8 7 7 7 7 7 6 5 6 6
3 5 2 4 5 3 4 6 8 9 9 9 5 7 10 16 18 19 20 18 19 18 16 14 12 11 10 10 9 8 7 6 7 7 7 7 7 7 9 13 10 10 12 12
6 3 5 1 4 1 5 3 5 7 8 8 7 6 8 13 18 18 17 12 13 11 16 15 12 10 9 8 7 7 6 6 7 7 7 6 8 8 10 12 14 18 16 19
Wind_Direction
187 201 207 199 220 326 246 186 137 143 129 78 190 165 176 188 200 182 175 179 178 178 172 167 172 171 169 168 168 166 169 171 172 172 175 163 159 146 151 140 137 153 145 142
174 212 205 238 205 239 223 193 131 103 129 106 41 151 170 184 195 194 182 180 177 178 173 179 182 179 182 180 184 178 182 179 193 176 183 181 154 163 156 155 165 180 181 169
204 198 163 213 209 220 200 220 161 137 120 75 96 22 164 185 227 217 189 197 187 183 183 185 192 191 188 182 187 188 184 182 196 188 178 178 148 144 182 148 179 182 200 190
229 146 186 201 212 228 170 358 122 142 168 142 200 200 136 177 201 218 209 206 195 185 204 188 194 198 195 188 186 186 185 180 185 199 188 189 183 188 189 193 193 182 182 181
180 177 198 201 195 187 28 155 132 160 129 137 159 153 190 164 205 207 206 205 203 198 195 198 199 199 199 189 189 186 189 186 192 194 191 193 197 180 186 185 193 184 184 190
89 211 201 193 159 169 218 175 175 129 314 226 173 189 222 207 202 200 206 215 208 198 202 201 200 191 196 189 191 186 186 191 202 204 198 229 186 194 178 188 205 193 196 187
171 180 189 226 187 159 175 186 168 210 196 242 158 204 206 208 197 201 198 205 210 203 200 205 199 186 205 196 192 187 189 192 197 209 207 208 211 215 214 208 201 190 201 207
200 186 196 190 213 187 192 204 213 202 213 176 190 226 171 179 189 207 202 199 201 210 199 201 198 200 195 204 195 193 185 191 194 202 210 212 222 228 237 223 203 197 159 218
208 224 167 195 210 224 194 207 234 271 236 209 173 224 188 161 192 196 207 203 191 211 207 203 199 202 199 199 199 196 191 192 192 196 197 208 212 217 265 261 243 204 201 174
195 220 196 196 221 219 237 212 216 233 261 233 179 202 244 191 200 197 199 200 199 194 204 205 205 203 202 201 203 199 194 194 193 198 199 204 210 219 215 217 246 275 223 204
229 267 158 176 204 203 203 229 227 245 235 263 224 201 159 196 189 189 196 197 196 194 194 189 197 197 189 204 193 193 191 194 204 200 200 214 205 211 211 217 233 255 239 195
206 241 218 203 167 234 223 213 212 223 227 245 285 30 133 157 177 179 178 185 190 189 196 179 172 172 170 180 181 177 193 205 208 205 208 205 207 209 216 220 236 217 218 209
174 237 212 216 180 198 223 226 236 226 243 231 234 239 144 150 161 166 175 171 174 181 180 180 163 162 169 159 143 130 149 205 214 213 209 216 201 213 223 222 223 232 234 234
269 271 269 250 330 218 193 216 220 242 226 235 230 222 173 177 173 174 176 170 165 163 161 185 167 167 159 170 148 139 121 201 235 219 214 215 219 213 214 216 216 221 221 234
270 260 264 269 292 261 233 218 212 224 237 246 249 216 199 188 178 175 175 156 166 163 153 145 167 169 168 162 160 148 157 165 162 180 196 184 171 174 167 160 169 182 200 206
239 259 264 231 225 224 232 228 230 225 235 250 267 251 11 145 155 165 165 161 155 146 138 138 154 188 176 176 167 151 149 167 165 150 135 122 114 106 103 124 134 132 119 141
273 261 243 229 191 212 229 59 273 206 238 281 225 68 134 159 172 170 161 162 148 153 152 134 112 109 146 147 155 160 162 163 191 164 143 139 124 116 99 85 111 115 110 105
218 245 249 252 200 223 82 72 36 30 115 313 288 18 157 157 157 157 160 161 152 148 130 114 112 92 112 110 129 136 135 124 119 115 126 136 138 133 132 121 108 113 114 111
9 279 246 257 255 168 171 42 28 350 71 7 11 143 133 130 128 138 162 150 146 132 122 106 97 96 91 100 108 113 106 110 114 116 107 110 109 121 140 145 146 126 98 83
304 336 287 237 249 255 60 5 333 302 199 22 21 152 159 152 171 163 163 138 126 125 121 111 100 92 84 76 87 93 94 95 93 98 111 114 123 134 143 134 133 137 102 101
201 207 226 260 244 254 22 338 312 244 55 350 333 168 169 190 330 146 136 123 120 120 120 110 90 83 88 83 80 79 86 81 82 80 87 102 117 121 122 113 125 120 114 104
255 241 232 250 231 237 5 289 339 346 326 352 308 164 187 120 128 137 136 128 129 125 123 116 102 94 92 101 91 88 78 83 100 103 90 87 97 114 115 120 116 119 124 120
235 317 355 320 43 63 37 35 8 353 338 342 296 159 144 153 146 143 141 140 133 128 128 123 110 110 115 101 117 110 113 110 113 115 109 106 106 105 106 111 122 122 122 117
176 193 252 267 129 130 58 81 35 26 15 0 282 151 160 161 153 148 144 138 135 133 127 123 125 111 106 113 109 116 128 131 129 121 113 115 108 98 93 93 89 98 110 114
20 172 225 238 167 175 116 46 27 41 45 54 73 133 157 158 159 151 146 146 143 141 139 138 127 131 123 118 113 116 124 132 128 128 126 130 121 107 90 60 49 84 49 33
197 233 225 293 79 323 90 26 13 24 46 70 92 126 154 160 158 150 142 123 113 141 140 132 125 119 115 113 115 125 133 142 145 145 153 138 140 137 121 111 89 62 73 67